Flag for Germany Weather past 2 weeks in Ettlingen, Baden-Württemberg, Germany

Now
57 °F

Fog.


Feels Like: 56 °F
Forecast: 50 / 71 °F
Wind: 7 mph from Northeast

Location: Karlsruhe - Baden Wurttemberg

Current Time: Oct 2, 2014 at 11:33:13 AM

Latest Report: Oct 2, 2014 at 10:50 AM


Visibility: 1 mi

Pressure: 30.39 "Hg

Humidity: 94%

Dew point: 55 °F

Location of EttlingenLocation

Historic Weather in Ettlingen — Graph

°F

Ettlingen temperature yesterday

Maximum temperature yesterday: 72 °F (at 3:50 PM)
Minimum temperature yesterday: 52 °F (at 4:50 AM)
Average temperature yesterday: 62 °F

Past Weeks' High & Low Weather Summary

 TemperatureHumidityPressure
High79 °F (Sep 19, 2:50 PM)100% (Sep 23, 5:20 AM)30.39 "Hg (Sep 23, 5:20 AM)
Low41 °F (Sep 23, 7:20 AM)40% (Sep 26, 4:50 PM)29.83 "Hg (Sep 17, 4:20 PM)
Average61 °F78%30.13 "Hg
* Reported Sep 17 10:20 AM — Oct 2 10:20 AM, Ettlingen, Weather by CustomWeather, © 2014

Note: Actual official high and low records may vary slightly from our data, if they occured in-between our weather recording intervals... More about our weather records

Advertising

Ettlingen weather history for previous 24 hours

 ConditionsComfort  
Time TempWeatherWind HumidityBarometerVisibility
10:20 AM
Oct 2
57 °FFog.8 mph94%30.39 "Hg1 mi
10:04 AM57 °FFog.8 mph94%30.39 "Hg1 mi
9:50 AM57 °FFog.7 mph94%30.39 "Hg3 mi
9:20 AM55 °FFog.7 mph94%30.36 "Hg2 mi
8:50 AM54 °FFog.5 mph94%30.36 "Hg2 mi
8:20 AM54 °FFog.6 mph94%30.36 "Hg1 mi
7:50 AM54 °FFog.7 mph94%30.36 "Hg0 mi
7:20 AM54 °FFog.6 mph94%30.36 "Hg0 mi
6:50 AM50 °FPassing clouds.5 mph94%30.36 "Hg1 mi
6:20 AM52 °FLight fog.2 mph94%30.36 "Hg1 mi
5:50 AM52 °FLight fog.2 mph88%30.36 "Hg1 mi
5:20 AM52 °FLight fog.2 mph94%30.36 "Hg1 mi
4:50 AM52 °FLight fog.No wind94%30.36 "Hg1 mi
4:20 AM52 °FLight fog.No wind94%30.36 "Hg1 mi
12:20 AM57 °FFog.3 mph88%30.36 "Hg5 mi
11:50 PM
Oct 1
57 °FFog.3 mph94%30.36 "Hg5 mi
11:20 PM57 °FFog.1 mph94%30.36 "Hg5 mi
10:50 PM59 °FFog.2 mph88%30.36 "Hg5 mi
10:20 PM59 °FFog.2 mph94%30.33 "Hg6 mi
9:50 PM59 °FFog.2 mph88%30.33 "Hg6 mi
9:20 PM61 °FClear.2 mph88%30.33 "Hg6 mi
8:50 PM61 °FClear.2 mph88%30.33 "Hg6 mi
8:20 PM63 °FClear.2 mph83%30.33 "Hg10 mi
7:50 PM64 °FClear.3 mph78%30.33 "Hg6 mi
7:20 PM66 °FSunny.1 mph73%30.30 "Hg10 mi
6:50 PM68 °FSunny.2 mph69%30.30 "Hg10 mi
6:20 PM68 °FScattered clouds.3 mph69%30.30 "HgN/A
5:50 PM70 °FScattered clouds.5 mph64%30.30 "HgN/A
5:20 PM70 °FScattered clouds.3 mph64%30.30 "HgN/A
4:50 PM72 °FScattered clouds.6 mph61%30.30 "HgN/A
4:20 PM72 °FScattered clouds.2 mph53%30.30 "HgN/A
3:50 PM72 °FScattered clouds.3 mph57%30.30 "HgN/A
3:20 PM70 °FSunny.3 mph60%30.30 "Hg10 mi
2:50 PM70 °FSunny.2 mph64%30.30 "Hg10 mi
2:20 PM70 °FSunny.1 mph69%30.30 "Hg10 mi
1:50 PM68 °FSunny.2 mph73%30.33 "Hg10 mi
1:20 PM64 °FScattered clouds.2 mph88%30.33 "Hg5 mi
12:53 PM64 °FFog.3 mph88%30.33 "Hg3 mi
12:20 PM61 °FFog.2 mph94%30.33 "Hg1 mi
11:50 AM59 °FFog.3 mph94%30.33 "Hg1 mi
11:20 AM59 °FFog.2 mph94%30.33 "Hg1 mi
Weather by CustomWeather, © 2014

See weather overviewHow to use our weather pages